Wind_Speed
4 3 3 4 5 7 8 8 9 10 11 10 9 7 5 4 4 4 6 6 7 7 7 6 6 6 6 6 7 9 10 10 10 10 9 9 8 7 6 5 5 6 6 6 6 6 6 4 1
6 6 5 5 5 6 8 9 10 11 13 13 11 9 8 7 6 5 5 6 7 7 7 7 6 6 6 6 7 8 9 9 10 10 11 11 10 9 8 8 8 9 10 10 8 7 6 5 2
8 9 8 8 8 10 10 10 11 12 13 13 12 11 10 8 7 6 5 6 7 7 7 7 7 7 7 8 8 8 9 9 10 11 12 13 13 12 12 12 12 12 13 13 12 10 8 7 6
10 10 10 10 11 14 13 13 14 14 13 14 13 12 11 10 7 6 6 7 8 9 9 9 10 11 11 11 11 11 12 12 12 13 14 16 16 17 17 17 16 17 16 16 16 15 13 11 9
12 11 11 11 15 16 17 16 15 15 13 13 13 13 11 10 9 8 8 9 11 12 12 12 13 14 15 15 16 16 16 17 17 17 18 19 20 21 21 21 21 21 21 20 19 19 18 16 14
14 13 13 13 17 18 19 18 17 14 11 11 13 13 12 11 10 10 11 12 13 14 15 17 17 18 19 20 21 22 22 22 22 22 22 22 24 25 25 25 24 24 24 24 23 23 22 21 20
16 16 16 17 18 20 22 21 19 15 12 11 12 14 14 13 13 13 13 14 15 17 19 21 22 23 24 26 28 29 29 29 28 28 27 27 28 28 29 28 28 27 26 26 26 26 26 25 25
17 17 17 18 19 23 24 23 22 18 15 12 12 14 15 15 15 16 16 17 19 21 23 25 27 28 29 30 32 33 34 34 34 33 32 31 31 31 31 31 30 29 29 28 28 28 29 29 28
20 18 17 19 20 23 26 26 24 22 19 16 15 15 16 17 18 18 19 20 22 24 27 29 30 31 32 34 35 35 35 37 37 37 35 35 34 33 33 32 31 31 30 29 29 30 30 30 30
21 20 19 20 20 23 26 26 26 25 24 21 18 17 17 18 19 20 21 23 25 28 29 31 32 32 33 35 35 35 35 37 38 38 37 37 36 35 35 33 32 32 31 30 30 31 31 30 30
22 21 22 22 22 23 25 26 26 27 27 24 22 20 19 20 21 22 24 25 28 30 31 33 34 33 34 34 33 33 33 35 37 38 38 39 38 37 37 35 33 33 32 31 31 32 31 31 31
22 21 22 22 22 21 22 24 25 26 26 26 25 24 23 23 23 24 26 27 29 31 32 33 34 33 33 32 32 32 31 32 34 36 39 40 40 40 39 37 34 33 32 31 31 32 32 32 31
22 22 22 21 21 20 20 22 23 24 26 27 27 27 27 26 26 27 28 29 30 31 32 32 32 33 34 33 32 32 31 31 31 33 36 39 40 40 41 39 37 35 33 33 33 33 32 32 31
21 21 21 20 20 20 19 20 21 22 24 26 28 29 29 29 28 28 29 30 31 32 32 32 33 34 34 33 32 31 30 30 30 32 34 36 37 39 40 41 40 38 37 35 34 33 32 31 30
19 18 19 19 19 20 19 19 20 20 21 24 26 29 30 30 30 29 30 31 32 32 33 34 35 36 35 34 30 28 28 28 28 30 32 34 35 37 38 40 40 39 37 34 32 32 31 30 29
16 15 17 18 18 18 18 19 18 18 19 20 23 25 27 28 28 29 30 31 32 33 34 36 37 37 35 33 29 28 27 26 27 28 30 31 32 34 35 36 38 38 37 35 33 32 32 31 30
9 8 12 16 16 17 16 17 17 17 17 17 18 19 20 22 25 27 28 30 32 35 37 38 38 36 35 32 30 29 28 28 28 28 28 28 29 31 32 33 35 36 36 35 34 33 33 32 31
9 8 12 15 16 16 17 17 17 17 17 17 16 17 18 21 24 26 29 32 34 36 36 36 35 34 33 32 32 32 32 31 30 30 29 28 28 28 29 31 33 33 34 34 34 34 33 33 32
11 10 12 16 16 17 17 18 18 18 18 18 19 19 21 23 26 28 30 31 32 32 32 32 33 34 34 34 35 35 36 35 33 32 31 30 29 28 28 29 30 31 33 33 33 33 34 34 33
9 9 11 14 14 15 16 18 18 20 21 21 21 22 23 25 25 26 27 29 30 31 32 34 36 37 38 38 39 39 39 38 37 36 35 34 33 32 30 29 29 29 31 32 32 32 33 33 33
7 7 9 11 11 12 14 15 16 18 19 20 21 21 22 23 25 27 28 30 32 34 36 38 39 40 41 42 42 42 42 41 41 39 38 38 37 36 35 33 32 31 30 30 31 31 31 31 32
5 7 8 9 9 10 9 12 13 15 17 18 20 22 23 25 27 29 31 34 36 37 38 40 41 42 43 44 44 44 44 44 43 42 42 42 41 41 41 39 38 36 34 33 32 32 31 31 31
4 6 7 8 8 10 10 11 14 15 18 20 22 24 26 28 30 32 34 35 37 38 39 40 41 43 44 45 46 47 47 47 47 46 46 45 45 46 46 46 44 42 40 38 36 34 33 32 31
5 7 8 10 9 10 13 12 17 18 21 23 25 27 29 31 33 34 35 36 37 38 40 41 43 45 47 49 50 52 52 52 52 51 51 50 50 49 50 50 50 49 47 44 42 40 38 36 34
7 7 8 8 8 12 17 15 17 19 22 25 28 30 32 33 34 34 34 36 37 39 41 43 45 46 48 50 52 52 52 51 51 50 50 50 51 52 53 53 54 54 53 51 49 47 45 42 39
9 8 7 6 8 13 18 16 17 21 24 27 29 30 30 31 32 34 36 37 39 40 42 43 45 47 48 48 46 44 43 42 42 42 43 44 45 48 51 53 56 57 58 57 56 54 52 49 46
11 9 9 8 10 11 17 19 20 23 25 26 26 27 29 31 34 36 37 39 41 42 43 45 48 47 44 40 37 36 37 38 40 41 42 44 45 46 48 50 53 56 59 61 61 60 58 56 53
9 9 9 8 10 10 15 23 24 23 24 25 26 29 31 34 36 38 40 41 43 45 47 47 47 44 39 36 35 36 37 39 41 42 44 46 47 49 51 52 53 55 57 60 63 64 64 62 60
9 9 9 10 12 14 14 20 23 24 25 27 29 31 33 36 37 39 40 42 44 46 47 46 44 41 38 37 37 39 42 44 46 48 50 51 53 54 56 57 58 58 59 60 62 64 66 67 65
9 9 10 12 15 16 18 21 22 24 25 28 30 33 35 36 38 39 41 42 44 45 45 44 42 40 39 39 41 44 46 49 51 54 55 57 58 59 60 61 62 62 62 62 63 64 66 68 69
Wind_Direction
295 299 321 339 348 353 350 347 355 359 359 354 348 340 327 312 305 303 307 313 317 319 316 330 358 4 353 330 314 308 304 303 302 297 285 273 266 262 261 259 262 269 277 285 304 325 342 351 331
280 284 289 302 320 324 312 321 330 340 342 337 331 323 315 308 306 304 312 319 324 326 325 338 355 357 348 330 313 306 304 302 300 294 285 275 270 270 272 274 275 276 276 276 280 292 308 318 320
276 275 276 283 289 283 290 301 313 326 331 329 323 316 307 301 302 307 321 328 329 328 332 339 342 340 336 327 317 309 304 300 295 289 280 273 269 271 274 278 279 278 275 272 269 270 278 287 286
274 273 275 274 275 276 282 290 301 315 321 320 314 306 298 293 292 302 317 319 319 319 325 330 330 328 324 320 315 308 302 296 291 285 280 275 272 273 275 277 277 275 273 269 265 262 262 266 269
278 275 273 273 269 274 279 285 295 306 311 309 303 296 289 285 282 287 294 300 305 309 316 321 323 323 320 317 313 307 302 298 293 287 283 281 279 278 277 276 275 273 270 267 263 258 255 255 257
275 276 266 259 267 276 279 285 293 297 300 296 295 291 285 279 273 277 281 289 297 305 312 316 317 317 316 314 311 307 302 299 295 292 287 285 283 282 280 277 275 272 269 266 262 258 254 252 252
270 270 265 262 263 270 275 282 284 287 286 287 288 284 280 272 270 272 276 283 293 302 307 311 312 312 312 310 309 306 301 297 294 291 288 286 284 283 281 277 274 270 267 265 261 259 256 253 251
267 266 264 260 258 260 266 271 276 278 278 278 277 280 281 279 275 275 279 285 292 298 302 306 308 309 309 309 307 304 299 296 292 288 286 285 283 281 278 275 271 268 266 264 261 259 257 255 253
270 267 262 256 252 252 256 260 267 273 273 272 272 277 281 282 282 280 281 285 291 295 298 302 304 307 308 310 309 304 298 293 289 284 282 281 280 278 275 271 268 267 265 265 263 261 259 257 256
275 272 265 257 250 247 250 253 258 263 268 271 272 274 279 283 283 282 281 284 288 292 295 298 300 304 308 312 312 308 301 294 288 283 279 278 277 275 272 268 265 264 263 264 265 264 262 259 257
278 274 267 261 254 249 249 251 254 257 263 268 271 273 276 280 281 280 281 283 285 288 291 295 297 302 307 312 312 310 303 294 288 282 278 277 276 274 270 267 263 261 259 261 264 264 263 260 258
277 273 271 269 269 267 264 262 261 262 264 268 270 271 273 275 275 276 279 281 284 286 290 293 296 301 308 310 309 306 303 298 291 283 277 276 275 273 271 267 266 266 263 261 262 262 261 260 259
274 271 272 275 279 279 274 271 270 268 270 270 270 270 271 273 273 275 277 281 285 288 290 293 297 302 305 306 306 305 299 295 290 285 279 276 274 273 270 267 266 265 264 264 261 260 259 257 257
274 274 275 277 279 280 278 275 272 270 269 268 269 269 270 270 270 273 275 281 285 287 289 292 295 300 303 306 304 305 300 294 290 285 282 277 274 272 269 265 265 263 263 263 261 260 259 256 255
273 274 273 273 275 277 279 278 276 272 268 266 265 265 265 266 267 270 274 279 282 285 287 290 294 298 301 305 304 303 301 297 292 289 284 279 275 272 269 265 265 266 265 263 261 259 258 255 253
270 273 271 270 272 274 276 279 278 276 274 270 268 266 265 263 265 269 274 279 282 285 287 290 294 297 301 303 303 301 301 298 297 295 289 283 277 274 272 269 267 267 265 263 260 258 257 254 252
272 259 265 273 273 275 277 281 282 282 282 279 276 272 268 265 267 272 277 282 285 288 290 292 295 297 300 301 299 298 300 299 298 297 293 288 282 277 272 269 268 266 266 264 260 257 254 253 252
245 249 262 267 271 275 279 282 286 283 283 282 282 280 275 274 277 281 285 288 291 293 294 295 297 298 299 298 298 298 298 298 296 295 292 289 286 282 276 271 270 266 264 261 257 255 253 253 253
257 259 265 270 274 275 277 278 279 278 280 283 284 285 285 286 289 291 294 296 297 299 299 299 299 299 298 297 296 295 295 294 293 291 288 286 284 283 280 274 270 266 261 259 258 256 254 252 251
277 280 281 281 280 278 275 274 274 275 278 282 285 289 292 294 297 299 302 302 302 302 301 301 300 299 297 295 294 293 291 290 289 288 285 283 280 278 277 275 270 267 263 259 258 257 254 252 250
286 278 280 291 291 286 283 280 275 276 279 283 289 294 298 300 302 303 303 303 302 302 301 299 298 296 294 293 291 290 288 286 285 283 280 278 276 274 272 270 269 267 266 262 258 256 255 253 250
276 284 292 301 306 302 293 290 285 285 290 295 298 299 300 301 302 302 301 301 301 299 298 297 296 294 293 291 290 288 287 285 283 281 277 274 271 269 267 266 265 264 263 262 259 257 255 252 250
263 293 303 307 305 302 299 293 297 296 300 302 301 299 299 300 300 299 299 298 298 297 297 296 296 294 293 291 290 288 286 284 282 279 277 274 270 267 264 263 261 261 260 259 258 256 254 252 249
303 314 321 323 323 304 302 301 296 299 299 298 297 297 299 299 298 298 297 297 298 298 298 297 296 294 293 291 290 288 287 285 283 280 276 273 270 267 265 262 260 259 258 257 256 255 253 251 248
322 330 329 325 317 292 299 300 300 299 298 296 297 300 301 300 300 300 300 300 300 299 298 296 295 293 292 290 289 288 287 285 283 281 278 274 271 268 265 262 261 259 257 255 254 254 253 251 248
310 307 296 289 291 296 307 311 308 303 301 302 303 302 302 303 304 305 305 304 303 302 300 299 298 298 296 294 292 289 287 286 284 282 280 278 275 271 267 263 261 259 257 255 253 251 250 250 249
304 302 304 317 316 319 307 316 313 310 309 309 307 307 308 309 310 310 310 309 308 308 307 307 306 305 303 299 295 291 288 285 284 282 280 278 276 273 270 267 263 260 257 255 253 251 249 248 247
310 320 330 332 317 317 312 317 325 321 320 317 314 314 315 315 314 314 314 314 315 314 314 312 311 310 306 302 297 293 290 288 285 283 281 279 276 273 271 268 264 261 258 255 252 250 249 246 245
332 335 334 332 334 333 325 315 331 329 327 324 322 321 320 318 317 318 318 318 318 317 316 316 314 310 306 302 299 296 295 292 291 289 286 283 279 275 271 268 264 261 258 255 251 249 248 246 244
345 345 343 340 336 337 336 331 339 336 334 331 329 326 322 321 321 321 320 320 320 320 320 318 314 310 307 304 302 301 299 297 295 293 290 287 282 278 273 268 264 260 257 254 251 248 246 245 243
Height
5932 5933 5933 5934 5934 5935 5934 5933 5932 5931 5930 5929 5928 5927 5926 5925 5925 5926 5923 5920 5920 5919 5918 5917 5916 5916 5917 5916 5916 5915 5915 5914 5914 5913 5912 5911 5910 5909 5909 5908 5907 5906 5905 5904 5904 5903 5902 5900 5900
5932 5932 5933 5934 5934 5936 5934 5933 5932 5931 5929 5928 5927 5926 5925 5923 5922 5921 5920 5919 5919 5918 5917 5916 5916 5916 5916 5915 5915 5914 5914 5913 5912 5912 5911 5910 5909 5908 5908 5907 5906 5905 5904 5903 5902 5901 5901 5900 5899
5932 5932 5933 5933 5934 5934 5933 5932 5931 5930 5929 5927 5926 5925 5924 5922 5921 5920 5919 5918 5918 5917 5916 5915 5915 5915 5914 5914 5914 5913 5912 5912 5911 5910 5909 5908 5907 5907 5906 5905 5904 5903 5902 5902 5901 5900 5899 5899 5898
5930 5931 5933 5933 5933 5931 5931 5931 5931 5930 5929 5927 5925 5924 5922 5921 5919 5918 5917 5917 5916 5916 5915 5915 5914 5914 5913 5913 5912 5912 5911 5910 5909 5908 5907 5906 5905 5904 5903 5903 5902 5901 5900 5899 5899 5898 5898 5897 5897
5928 5930 5931 5932 5931 5930 5929 5929 5929 5929 5928 5926 5924 5923 5921 5920 5918 5917 5916 5915 5914 5914 5914 5913 5913 5913 5912 5911 5910 5909 5908 5907 5905 5904 5904 5903 5902 5901 5900 5899 5898 5897 5896 5896 5896 5895 5895 5895 5895
5926 5927 5929 5930 5928 5928 5927 5927 5927 5926 5926 5924 5923 5922 5921 5919 5917 5916 5914 5913 5912 5912 5912 5911 5911 5911 5910 5909 5908 5906 5904 5903 5901 5900 5899 5898 5897 5896 5895 5894 5894 5893 5892 5892 5892 5892 5891 5891 5892
5924 5924 5924 5925 5925 5925 5924 5924 5923 5923 5923 5923 5922 5920 5919 5917 5916 5914 5912 5911 5911 5910 5909 5908 5908 5907 5906 5905 5903 5902 5900 5898 5896 5895 5894 5892 5891 5890 5889 5889 5888 5888 5887 5887 5887 5887 5887 5887 5888
5920 5921 5921 5921 5922 5921 5920 5920 5920 5920 5920 5921 5920 5919 5917 5917 5915 5913 5912 5910 5909 5908 5907 5905 5904 5903 5901 5900 5898 5896 5894 5892 5890 5888 5887 5886 5884 5883 5882 5882 5882 5882 5881 5881 5881 5881 5882 5882 5883
5916 5918 5917 5916 5916 5916 5915 5916 5917 5917 5917 5917 5917 5916 5916 5915 5914 5912 5911 5909 5907 5906 5904 5902 5901 5899 5897 5894 5892 5889 5886 5884 5883 5881 5880 5878 5877 5876 5875 5875 5875 5875 5875 5875 5875 5876 5876 5876 5877
5912 5913 5912 5911 5911 5910 5910 5912 5913 5913 5912 5912 5913 5913 5913 5912 5911 5909 5908 5906 5904 5902 5901 5899 5897 5895 5892 5889 5886 5882 5878 5876 5874 5873 5871 5870 5869 5868 5867 5867 5868 5868 5869 5869 5869 5869 5870 5870 5871
5908 5908 5907 5905 5905 5905 5905 5906 5908 5908 5908 5909 5909 5909 5909 5908 5907 5905 5904 5902 5900 5898 5897 5895 5893 5891 5888 5885 5881 5876 5872 5868 5866 5864 5863 5862 5861 5860 5859 5859 5859 5860 5861 5862 5862 5863 5863 5864 5865
5903 5903 5902 5901 5902 5902 5902 5903 5903 5904 5904 5905 5904 5904 5904 5903 5902 5901 5899 5897 5896 5894 5892 5890 5888 5886 5883 5880 5876 5871 5867 5863 5859 5857 5855 5854 5853 5852 5852 5852 5852 5853 5854 5855 5855 5856 5856 5857 5858
5898 5898 5898 5898 5898 5898 5898 5898 5899 5899 5899 5899 5899 5899 5899 5898 5897 5895 5894 5892 5891 5889 5887 5885 5883 5880 5878 5874 5870 5865 5860 5857 5853 5850 5848 5846 5846 5845 5844 5844 5845 5846 5847 5847 5848 5849 5849 5850 5851
5893 5893 5893 5894 5894 5893 5893 5893 5893 5894 5894 5894 5894 5893 5893 5892 5891 5890 5889 5887 5886 5884 5882 5879 5877 5875 5872 5868 5863 5859 5855 5851 5847 5844 5841 5839 5837 5837 5836 5836 5837 5838 5839 5839 5840 5841 5842 5843 5844
5888 5889 5889 5889 5889 5889 5889 5888 5888 5888 5888 5888 5887 5887 5886 5886 5885 5884 5884 5882 5880 5878 5876 5874 5871 5868 5864 5861 5857 5853 5849 5845 5841 5838 5835 5831 5829 5828 5828 5828 5829 5830 5831 5832 5833 5834 5834 5836 5837
5884 5885 5885 5885 5884 5884 5886 5883 5883 5882 5882 5882 5881 5881 5880 5880 5880 5879 5878 5877 5874 5872 5870 5867 5864 5861 5857 5854 5850 5847 5843 5839 5835 5831 5828 5824 5822 5820 5820 5820 5821 5822 5823 5824 5826 5827 5828 5829 5830
5883 5885 5882 5881 5880 5880 5880 5879 5878 5878 5877 5877 5876 5876 5875 5875 5875 5874 5873 5870 5868 5865 5862 5859 5856 5853 5849 5846 5843 5840 5837 5833 5829 5825 5822 5819 5816 5814 5813 5813 5814 5814 5815 5817 5818 5820 5821 5822 5823
5881 5881 5879 5878 5877 5877 5876 5876 5875 5874 5873 5873 5873 5872 5871 5871 5870 5868 5866 5863 5860 5857 5854 5850 5847 5844 5841 5838 5836 5832 5829 5826 5823 5819 5816 5813 5811 5808 5807 5807 5807 5807 5808 5809 5811 5812 5813 5815 5816
5876 5877 5877 5875 5874 5874 5873 5872 5872 5870 5870 5869 5868 5867 5866 5865 5863 5861 5858 5855 5852 5848 5845 5842 5839 5836 5833 5830 5828 5825 5821 5818 5816 5813 5810 5807 5804 5802 5801 5800 5799 5799 5800 5802 5803 5804 5806 5807 5808
5873 5874 5874 5872 5871 5871 5869 5868 5867 5866 5865 5864 5863 5862 5860 5858 5856 5853 5850 5847 5844 5840 5837 5834 5831 5828 5825 5822 5818 5815 5812 5809 5807 5804 5802 5799 5797 5795 5794 5793 5792 5792 5793 5793 5795 5796 5798 5799 5801
5872 5872 5872 5869 5868 5867 5865 5864 5863 5861 5860 5859 5858 5857 5855 5853 5850 5847 5844 5840 5837 5833 5829 5826 5822 5818 5815 5812 5808 5805 5802 5799 5797 5794 5792 5790 5788 5787 5786 5785 5785 5785 5785 5786 5787 5788 5790 5791 5793
5871 5869 5868 5867 5865 5864 5863 5863 5860 5858 5857 5855 5854 5852 5850 5847 5844 5841 5838 5834 5830 5826 5822 5818 5813 5809 5805 5801 5797 5794 5791 5788 5786 5784 5782 5780 5779 5777 5776 5776 5776 5776 5777 5777 5778 5780 5781 5783 5785
5868 5867 5866 5865 5864 5863 5861 5861 5858 5855 5853 5852 5849 5847 5845 5842 5839 5835 5832 5827 5823 5819 5814 5809 5805 5800 5795 5790 5786 5782 5779 5776 5774 5772 5770 5769 5767 5766 5765 5765 5765 5766 5767 5768 5769 5771 5772 5774 5777
5868 5867 5865 5864 5863 5862 5859 5859 5855 5852 5850 5848 5845 5842 5839 5836 5833 5829 5824 5820 5816 5811 5806 5801 5796 5790 5784 5779 5774 5769 5766 5762 5760 5758 5756 5755 5754 5753 5753 5752 5753 5753 5755 5757 5759 5761 5763 5765 5767
5867 5868 5867 5866 5864 5861 5857 5855 5853 5849 5846 5843 5840 5837 5833 5829 5825 5821 5816 5812 5807 5802 5796 5791 5785 5780 5773 5767 5762 5757 5752 5748 5746 5743 5741 5740 5739 5738 5738 5738 5739 5739 5741 5743 5746 5749 5752 5755 5757
5866 5866 5866 5865 5863 5860 5853 5851 5850 5845 5842 5838 5834 5830 5825 5821 5817 5812 5807 5802 5797 5792 5786 5780 5773 5767 5760 5754 5748 5743 5739 5736 5733 5730 5727 5725 5724 5722 5722 5722 5723 5725 5726 5728 5731 5735 5738 5742 5746
5863 5862 5861 5859 5858 5856 5852 5848 5845 5840 5837 5832 5828 5823 5819 5814 5809 5803 5797 5792 5786 5779 5773 5766 5759 5752 5745 5739 5735 5732 5728 5725 5722 5718 5716 5713 5711 5709 5707 5707 5707 5708 5710 5712 5715 5719 5723 5727 5732
5861 5859 5857 5857 5854 5854 5851 5844 5840 5835 5831 5826 5821 5817 5812 5806 5800 5793 5787 5781 5774 5767 5760 5753 5745 5738 5733 5728 5724 5721 5717 5713 5709 5706 5702 5699 5696 5694 5692 5691 5690 5691 5692 5694 5698 5702 5706 5712 5716
5858 5857 5855 5853 5851 5849 5847 5844 5836 5830 5826 5821 5815 5810 5804 5798 5792 5785 5779 5772 5765 5757 5749 5741 5734 5728 5723 5718 5714 5709 5705 5700 5695 5690 5686 5682 5679 5676 5674 5673 5672 5672 5673 5675 5678 5683 5688 5694 5700
5856 5854 5853 5851 5848 5845 5842 5840 5832 5827 5821 5816 5810 5804 5798 5792 5785 5778 5771 5764 5756 5748 5740 5731 5724 5718 5713 5708 5703 5697 5691 5685 5679 5672 5666 5661 5657 5654 5651 5650 5650 5651 5652 5655 5658 5663 5668 5674 5681